Forside
METAR-TAF:

METAR-TAF

Lufthavne :

Tajima, Japan

Breddekreds: 35-31N, længdekreds: 134-48E, højde: 210 m

Aktuelle vejr

Denne rapport blev lavet for 27 minutter siden, kl. 01:00 UTC
Vind 3 kt fra nordøst, varierende mellem nordvest og øst
Temperatur 25°C
Fugtighed 61%
Tryk 1010 hPa
Sigt 10 km eller mere
Nogle få skyer i en højde af 3000 ft
Brudte skyer

METAR: RJBT 250100Z 04003KT 320V100 9999 FEW030 BKN/// 25/17 Q1010

Tid: 10:27 (01:27 UTC)


TAF: fraværende

Vejrobservationer og prognoser fra mere end 4000 lufthavne (METAR og TAF).

De gule og røde prikker repræsenterer de meteorologiske stationer.

Flyt musen over at se navnet på stationen.

Så klik over at se vejr observationer og prognoser.

At skifte det kort: Klik på de grønne knapper med et sort kors for at zoome ind; på den grønne knap med en bindestreg for at zoome ud; eller på de grønne pile for tilstødende kort.


METAR-TAF: